Reflectivity
-20 -20 -20 -20 -20 -8 -20 1 -12 -20 -20 -20 -9 8 4 -20 -2 3 18 29 -16 -20 -20 -20 -20 -20 -20 -19 -6 -20 -20 -20 -20 -5 -7 -1 -20 -20 -20 -20 -20 -20 -20 -20 -20 -20 -20
-20 -20 -20 -20 -20 -20 -6 -20 -20 -20 -14 -18 -3 -0 -12 7 -11 -20 1 17 19 -20 -20 -20 -20 -20 -20 -20 -20 -20 -20 -20 -20 16 11 -9 -15 -20 -20 -20 -20 -20 -20 -20 -20 -20 -20
-8 -13 -18 -19 -18 -20 -20 -20 -20 -20 -20 -20 -13 -0 7 -18 -20 -10 17 21 26 5 -20 -20 -20 -20 -20 -20 -20 -20 -20 -20 -20 -20 20 -11 8 -17 -20 -20 -20 -20 -20 -20 -20 -20 -20
-19 15 -20 12 9 12 -20 -3 -20 -20 -20 -20 -20 -20 -19 13 -12 -7 18 26 32 13 -20 -20 -20 -20 -20 -20 -20 -20 -20 -20 -20 -20 -20 -20 -20 -20 -19 -14 -20 -20 -20 -20 -20 -20 -20
14 -1 10 -11 -13 12 6 15 -1 -8 -20 -20 -20 -20 -12 -1 -2 -20 8 7 35 12 -19 -20 -20 -20 -20 -20 -20 -20 -20 -20 -20 -20 8 -20 -20 -7 -20 -9 -11 -20 -20 -20 -20 -20 -20
-1 9 11 11 12 -20 10 -14 14 -1 6 -16 -20 -20 -20 15 -14 -20 4 9 35 35 14 5 -11 -20 -20 -20 -20 -20 -20 -20 -20 -20 -2 -8 -20 2 -6 5 -17 -20 -20 -20 -20 -20 -20
-3 13 -0 7 14 10 18 17 -20 4 -5 -14 -19 -2 24 -20 -3 10 -17 23 39 39 22 -20 -4 -20 -20 -20 -20 -20 -20 -20 -20 -8 -20 -20 -20 -20 -20 -20 -20 -20 -20 -20 -20 -20 -20
14 10 18 11 11 11 19 12 -20 -1 7 18 10 -9 -20 6 -2 -4 -17 21 39 28 17 -9 -10 -12 -20 -20 -20 -20 -20 -20 -1 6 -20 -11 -13 -20 -20 -20 -20 -20 -20 -20 -20 -20 -20
12 14 18 14 17 12 20 -5 12 9 21 -20 5 14 21 -13 19 -11 -12 20 36 34 31 -4 -20 -20 -20 -20 -20 -20 -20 -20 -20 1 -14 -8 -20 -20 -20 -20 -20 -20 -20 -20 -20 -20 -20
3 -17 8 6 16 15 15 19 20 19 -2 -20 15 29 30 25 10 -14 15 21 36 38 31 5 3 -20 -18 -20 -20 -20 -20 -20 -20 -5 -1 1 -20 -20 -20 -20 -20 -20 -20 -20 -20 -20 -20
8 11 -0 -12 -20 6 19 19 -3 -20 -3 -20 -20 20 20 20 37 17 -7 18 28 35 24 -19 -12 -14 -20 -20 -20 -6 -20 -19 -20 -20 -20 -20 -20 -20 -20 -20 -20 -20 -20 -20 -20 -20 -19
-20 6 17 14 -5 15 19 -15 -20 -1 -20 3 0 4 18 25 16 -3 0 21 29 31 22 9 7 -6 -10 -20 -5 3 -12 -12 -20 -20 -9 -20 -20 -20 -20 -20 -20 -20 -20 -16 -20 -20 1
-1 21 18 18 -2 14 17 17 -19 10 -1 -3 -19 5 14 18 15 5 25 28 27 22 5 -6 5 2 -2 -19 6 9 9 9 -12 -1 2 -20 -20 -20 -20 -20 -20 -16 -18 -9 -2 2 -20
1 19 15 17 8 16 16 15 -20 15 -10 -3 19 -3 23 24 20 -11 39 29 21 11 -13 -20 8 12 9 -12 -1 3 8 1 -12 -20 -20 -19 -6 -20 -20 -20 -11 -8 1 -19 -20 -20 -20
11 11 13 12 -10 8 18 13 -15 -20 2 9 10 -18 22 0 25 1 28 13 33 -20 -20 -18 12 12 10 5 -2 10 8 1 -7 -19 -20 -20 -13 -20 -20 -5 -20 -3 -8 -19 0 -20 -20
10 -3 14 -20 4 16 -6 4 3 -20 9 30 16 0 25 -5 23 27 16 38 -6 -20 -4 -11 -7 -17 1 7 2 -12 3 -20 -20 -20 -20 -11 -13 -20 -19 -16 -15 -20 -19 -10 -9 -2 -20
17 2 14 3 12 10 -13 9 -20 -20 10 20 7 38 25 23 21 25 25 27 -8 -16 -17 -6 -20 -20 -20 -13 -18 -20 -20 -20 -20 -20 -20 -20 -15 -20 -20 -20 -20 -13 -1 -0 -11 -10 -16
17 12 7 3 -5 -20 -9 7 -20 8 20 19 12 26 17 -9 13 27 23 20 -2 -14 -9 -20 -13 -20 -20 -20 -20 -19 -1 -20 -20 -20 -19 -20 5 -19 -20 -20 -20 -20 -19 -19 7 -20 12
11 14 7 0 -20 -20 6 -12 -20 9 21 18 26 16 17 32 16 35 27 22 9 -4 -20 -20 -20 -20 -20 -20 -18 -11 -20 -20 -20 -20 -20 -20 -0 -20 -20 -18 -20 -20 -20 -19 11 23 16
11 12 16 -15 4 -18 -10 -4 -20 -13 8 36 19 27 1 17 26 25 27 8 -12 11 -10 -20 -20 -20 -20 -20 -20 -20 -20 -20 -20 -20 -20 -18 -5 -20 -20 -20 -20 -10 -20 8 31 21 -13
10 12 11 -20 2 -20 -1 0 -20 -20 -4 6 7 3 -1 -17 5 13 15 -20 3 -19 -20 -20 -20 -20 -20 -20 -20 -20 -17 -20 -14 -20 -20 -19 -2 -12 -20 -20 -20 -19 7 -20 10 16 22
11 12 12 3 11 -20 -1 -20 -20 -20 -6 -9 13 17 5 -2 -10 5 -3 -3 21 -20 -20 -20 -20 -20 -20 -20 -20 -20 0 -20 -20 -20 -20 -7 3 -16 -20 -20 -13 -3 -17 -1 22 20 21
9 -19 -15 -20 8 -17 -15 -17 -20 -20 -20 -12 1 -9 5 -19 3 4 -20 9 3 -20 -20 -20 -20 -20 -20 -20 -20 -20 -20 -20 -6 -15 -18 9 2 6 -20 -20 -20 -10 -1 -4 -0 16 17
6 -11 11 11 -8 -4 -20 -4 -20 -20 3 12 7 5 0 1 -7 3 -17 -11 -20 -14 -0 -20 -20 -20 -17 -20 -20 -11 -20 -20 -20 -20 -7 5 4 15 6 -20 -3 -1 -10 -17 -16 18 13
-3 -20 -20 12 -20 -20 -20 -14 -20 -20 -5 6 7 11 7 14 -10 -15 -19 -20 -20 -20 -4 1 -20 -19 -4 1 -5 5 7 0 -15 -8 9 -2 1 7 6 -13 -20 -20 -20 -20 -20 18 19
-20 -16 -20 7 6 3 1 -20 -20 -20 -12 -19 10 18 15 18 -6 0 4 -18 -20 -2 -1 6 -18 -13 -1 13 15 11 -20 -2 -3 12 7 -18 -5 24 -3 10 -11 -20 -20 -20 -20 -20 -11
-20 -20 -20 -7 2 4 -15 -20 -20 -20 -13 -4 11 9 6 20 2 5 -0 -11 -9 -12 -3 -2 -0 -0 -10 18 4 14 9 -5 8 10 3 13 18 4 -5 4 -16 -20 -20 -20 -20 -20 -20
-20 -20 -20 -20 -20 -20 -20 -20 -20 -20 -17 -19 2 19 8 2 11 4 -9 8 -20 9 -11 -3 -20 -1 11 19 16 3 -11 2 -20 -4 1 -9 -11 -11 11 12 -6 -20 -20 -20 -20 -20 -20
-14 -20 -20 -20 -20 -20 -20 -20 -20 -20 -20 -20 -2 1 1 -2 7 -11 -13 -20 -19 -12 -19 -20 -20 -18 1 2 12 8 9 2 -3 -3 -20 -4 -20 15 -16 3 -20 -20 -20 -20 -20 -20 -20
Wind_Speed
17 17 18 18 20 18 20 20 19 20 19 19 20 21 21 21 21 20 19 17 14 12 10 7 4 4 7 7 8 10 1 5 10 17 16 14 13 14 13 12 8 13 16 11 13 14 14
16 16 17 19 20 21 20 21 20 21 20 20 22 20 22 21 21 20 20 14 15 14 11 8 5 4 9 13 4 3 3 3 11 16 15 11 6 7 7 8 10 2 10 14 13 15 15
17 17 18 20 20 20 20 22 23 22 22 21 21 20 21 21 21 20 19 16 15 15 12 9 7 8 9 7 2 2 4 1 3 8 13 12 7 6 4 5 8 8 13 15 19 19 15
18 18 19 20 20 18 20 19 22 23 24 23 21 20 22 21 19 18 17 17 20 16 14 11 10 7 6 2 3 4 6 5 6 8 6 8 5 1 4 3 5 8 12 14 3 5 8
19 20 21 21 20 21 22 22 22 20 23 25 23 20 21 20 18 18 18 16 15 18 16 12 8 7 4 5 6 8 7 8 8 7 7 9 7 3 3 9 11 12 10 15 10 7 7
21 21 22 23 23 23 23 22 23 22 22 21 21 20 19 18 16 15 18 18 13 17 13 8 2 5 7 6 7 7 8 9 10 12 9 7 7 8 11 12 9 12 15 13 11 5 8
22 24 23 23 24 24 24 24 23 23 23 20 20 18 18 17 17 16 13 4 6 8 10 7 11 2 11 9 10 9 12 13 10 11 7 9 8 13 16 15 17 8 9 12 10 7 15
21 24 26 26 24 25 25 23 24 22 24 23 16 16 19 19 17 15 9 4 7 6 7 8 11 8 8 10 7 11 13 12 13 13 9 5 15 15 10 9 12 13 14 15 14 13 12
23 23 25 26 26 26 24 24 24 24 22 23 20 18 21 19 21 15 13 12 11 10 4 13 12 12 8 8 8 15 17 12 16 17 16 12 1 4 12 10 11 13 14 13 15 16 18
24 26 26 27 27 25 25 24 24 23 24 21 19 18 19 22 18 13 15 10 7 2 4 10 10 7 9 7 6 15 16 9 6 14 12 13 8 4 8 12 11 11 9 10 11 9 6
25 25 26 25 26 25 25 24 23 22 25 21 22 23 18 17 6 9 3 11 11 2 7 16 11 9 15 11 16 12 13 4 10 8 8 4 6 12 13 12 8 6 3 5 8 10 14
24 24 25 26 25 25 24 23 22 24 23 20 22 26 25 12 8 12 6 15 9 4 5 7 8 14 17 14 9 11 13 4 4 7 11 11 3 5 6 4 8 4 3 6 7 7 10
26 27 26 25 24 24 24 22 22 23 25 21 25 29 23 7 6 12 8 7 6 7 11 9 10 14 17 15 11 13 13 10 9 6 9 11 16 7 8 6 5 8 1 2 5 5 9
25 25 25 24 24 24 23 22 24 24 23 23 26 29 5 6 4 13 3 5 8 8 8 8 16 18 10 18 10 14 15 11 13 12 3 8 6 17 12 12 5 13 8 5 6 8 11
24 25 24 23 24 23 23 23 25 25 23 24 27 5 1 5 9 10 5 5 2 13 11 14 18 6 7 17 7 10 13 11 11 13 6 5 3 1 9 7 10 6 9 9 13 17 13
23 24 24 22 24 23 23 23 26 24 24 26 6 4 2 11 13 6 2 1 2 7 16 17 6 7 9 15 10 11 13 10 8 15 11 2 3 6 7 5 10 12 1 2 4 6 11
24 23 24 22 23 22 23 24 26 25 28 28 3 2 4 10 9 3 2 3 7 15 12 4 9 10 11 15 10 14 15 5 14 11 13 5 3 6 5 12 13 11 10 7 8 8 8
21 23 22 22 22 22 23 25 27 26 29 14 1 2 5 6 3 1 1 3 13 12 1 2 7 7 16 17 10 10 8 2 5 7 10 9 3 5 12 8 8 13 14 17 8 9 8
22 23 23 22 21 22 23 25 28 28 30 2 3 2 2 4 3 1 3 7 7 5 1 3 5 2 7 14 7 7 3 6 8 11 9 10 5 4 3 2 8 11 14 18 17 17 19
23 23 21 21 21 22 23 25 28 30 30 4 2 2 2 1 1 4 4 6 6 3 7 8 9 11 11 12 5 8 5 5 7 9 8 4 5 9 9 10 9 7 15 16 13 9 20
22 22 23 22 21 21 22 23 27 28 31 3 1 3 1 3 3 5 5 6 5 4 3 3 4 5 5 5 5 4 5 6 7 6 6 6 7 13 18 20 19 17 21 22 19 21 17
19 19 19 20 20 20 21 22 24 25 27 4 4 3 2 3 5 7 2 9 9 2 2 3 5 6 3 3 2 5 7 5 4 7 8 4 4 2 15 18 14 16 20 18 18 18 16
20 19 21 19 18 19 20 21 23 23 18 3 2 3 5 3 6 5 6 10 8 6 4 6 6 5 1 3 1 2 2 1 3 8 11 5 3 3 6 11 20 9 4 9 12 12 8
19 20 19 18 17 16 18 18 20 20 18 3 2 3 3 3 5 7 5 6 7 5 6 5 3 1 4 5 3 2 5 7 9 10 8 6 4 2 6 12 4 1 2 10 7 7 10
18 19 19 18 16 15 16 17 19 19 20 5 1 2 2 2 5 7 4 7 5 5 2 3 4 5 4 2 1 3 3 3 11 18 17 13 6 3 4 6 16 5 9 7 2 4 8
16 17 17 16 15 15 15 17 18 18 20 7 0 3 3 3 5 5 5 7 6 6 3 3 6 4 3 0 2 3 4 4 3 3 6 13 10 3 3 5 5 6 12 5 6 1 2
16 16 16 16 15 15 16 16 17 18 19 8 2 4 3 3 2 3 8 7 3 4 2 2 3 2 4 3 2 4 4 0 3 5 5 5 3 6 7 5 9 9 11 3 6 7 9
14 15 15 15 15 15 15 15 15 15 17 10 4 2 4 3 1 2 4 1 3 4 3 4 2 1 3 3 3 3 6 4 4 2 6 8 6 4 4 5 7 6 8 5 8 9 7
13 14 14 15 15 14 14 14 14 15 16 13 2 3 4 3 4 1 3 2 3 3 3 6 0 3 2 3 4 4 4 3 5 2 3 5 7 3 8 5 9 10 7 7 5 10 5
Wind_Direction
348 354 353 350 345 349 344 340 341 340 334 332 322 321 322 313 321 322 314 237 211 213 215 213 226 251 243 217 250 125 159 189 221 194 209 194 211 211 221 209 196 232 255 245 269 265 261
341 345 341 342 340 339 339 335 334 329 328 327 326 326 320 313 312 316 313 260 213 205 200 201 203 232 240 229 71 122 214 210 217 200 202 212 235 246 278 226 215 352 265 271 260 260 256
339 332 339 340 339 331 332 328 329 327 327 324 318 319 322 314 308 307 308 299 220 200 188 191 188 217 236 220 98 168 221 212 254 190 197 205 234 193 175 258 245 270 263 262 249 244 239
332 336 334 328 323 330 321 326 322 321 321 320 321 322 314 315 309 308 303 299 225 190 178 185 191 202 248 64 223 180 196 163 175 163 215 128 89 175 280 100 212 233 239 257 169 227 238
328 333 328 324 326 326 323 326 324 319 320 320 322 319 310 315 311 310 312 289 297 170 171 170 190 222 225 134 194 185 198 176 143 144 152 157 135 211 198 233 231 215 254 220 235 201 251
331 326 323 324 325 322 329 319 322 321 317 316 316 311 304 307 312 306 317 295 301 163 168 178 177 205 185 190 143 154 186 173 156 144 134 160 189 204 207 212 222 237 216 243 262 162 228
328 326 325 321 324 325 323 325 321 318 312 317 314 313 309 314 315 327 325 319 219 180 188 181 181 127 131 112 141 165 166 177 171 177 180 194 210 216 221 224 259 283 293 284 279 281 278
332 322 327 329 324 325 325 325 317 316 318 318 315 303 317 303 306 306 307 267 277 355 171 234 167 103 132 158 134 154 170 175 188 193 172 169 232 233 239 259 244 253 261 264 277 282 292
324 328 329 327 326 331 329 322 318 320 320 317 321 318 311 308 294 287 252 242 243 13 241 182 168 166 156 187 164 166 190 203 195 206 194 213 98 268 226 220 234 241 258 273 284 307 295
336 332 330 330 330 332 327 322 321 322 317 319 319 314 303 312 290 247 247 236 195 77 219 155 191 201 163 183 171 159 194 180 199 214 197 235 209 198 205 225 224 261 267 280 284 289 278
337 330 327 332 335 329 327 325 322 323 320 319 318 320 315 302 310 243 309 172 111 57 207 141 142 142 168 179 122 177 186 193 203 202 170 216 217 214 227 227 211 245 27 283 290 289 311
331 326 332 335 334 329 330 327 324 322 319 314 320 318 311 291 231 231 89 125 89 238 180 134 131 171 163 183 145 142 173 233 285 219 223 261 128 227 216 200 222 67 268 274 269 270 255
332 335 331 331 332 333 333 330 326 327 323 323 321 318 309 249 219 159 149 117 167 249 161 141 160 163 162 172 155 164 172 186 180 170 213 228 229 196 233 224 199 208 205 266 217 207 248
330 339 338 338 335 336 336 333 334 329 328 322 326 313 271 202 221 133 34 123 234 131 140 161 141 151 168 161 182 177 174 195 214 225 161 201 184 198 168 217 197 207 203 236 271 256 305
334 341 343 342 338 340 336 340 335 334 331 333 326 301 247 172 142 121 168 169 240 146 134 141 135 133 133 170 157 170 195 194 212 207 211 180 245 210 174 193 206 169 210 244 281 281 274
341 337 341 348 343 340 342 339 342 336 333 337 317 293 40 151 141 123 137 210 9 110 139 143 124 182 158 172 161 177 180 203 201 207 220 25 248 178 169 215 227 220 358 166 201 262 265
342 340 339 351 345 346 343 342 344 338 336 328 281 342 48 132 135 62 207 60 107 131 134 185 154 156 171 167 183 179 182 121 196 187 194 184 214 140 153 208 203 199 231 231 286 239 276
342 341 340 345 349 344 347 348 345 341 331 314 170 80 105 134 84 112 190 87 133 133 116 128 138 150 151 164 167 173 175 88 190 188 182 191 180 249 243 237 222 233 219 226 232 232 234
341 342 344 344 352 344 350 350 346 343 342 5 62 58 331 245 133 227 269 101 123 149 58 143 125 124 140 154 153 176 190 104 168 180 175 165 207 280 165 148 240 231 248 253 249 266 252
339 343 345 344 349 347 355 351 350 346 352 14 156 94 36 314 283 153 93 84 109 42 68 89 107 127 126 145 75 159 161 142 173 201 73 222 221 242 281 320 329 227 251 251 244 256 268
341 344 347 346 352 351 357 356 355 351 351 330 330 68 160 162 168 155 134 131 118 142 96 112 107 133 121 135 154 179 163 136 157 176 182 202 256 259 265 278 284 280 279 277 267 258 255
340 340 338 348 350 352 356 359 2 358 351 26 18 342 253 138 167 161 153 153 177 113 136 121 129 138 103 92 48 167 170 180 201 170 186 231 264 281 282 263 263 277 277 278 270 268 266
333 341 340 344 351 354 357 2 3 3 5 2 322 298 292 325 172 159 196 168 176 155 51 61 112 141 121 18 304 101 207 266 253 178 196 209 212 276 271 326 307 275 240 278 296 291 275
337 345 342 342 349 358 357 4 3 2 11 319 316 302 303 164 202 204 179 170 176 206 114 105 116 128 62 68 69 188 196 228 262 242 229 199 174 243 293 311 264 46 339 283 260 287 336
345 346 347 345 349 356 359 3 1 359 1 355 296 281 298 277 191 211 201 200 154 134 156 133 110 84 85 87 347 220 185 232 226 228 229 222 201 269 275 304 279 282 23 331 304 293 319
344 345 348 348 348 352 1 0 359 358 357 356 281 316 290 296 215 183 190 189 191 206 163 125 84 96 92 233 213 255 221 234 150 136 239 223 224 197 326 296 291 347 15 19 149 326 63
338 343 342 348 351 352 354 355 354 356 360 358 304 6 279 280 64 196 197 188 173 171 77 98 139 168 171 182 235 245 249 360 220 188 153 159 169 215 229 257 275 296 331 112 307 353 353
333 335 337 340 339 339 343 344 345 350 358 358 283 61 329 323 310 302 343 160 148 214 157 133 133 108 158 210 225 241 261 219 244 191 174 182 180 190 184 223 265 12 313 348 341 313 329
329 326 331 334 332 332 334 331 339 349 346 353 309 339 294 229 320 310 309 346 27 5 117 174 334 142 180 217 213 265 238 240 254 234 200 226 214 180 205 233 314 315 297 328 345 304 339